LiveATC.Net - Listen to live air traffic control over the Internet! Contact LiveATC.net for advertising information


ICAO: LFLP  IATA: NCY   Airport: Annecy-Meythet Airport
City: Annecy
Country: France   Continent: Europe
LFLP METAR Weather: LFLP 101200Z AUTO 19004KT 150V220 9999 SCT042 OVC052 03/M02 Q1006
LFLP Flight Activity (FlightAware)
LFLP Twr/App
Feed Status: DOWN
Last heard on: 2016-02-08 13:52:03 (1 days 23 hours 5 minutes ago)
LFLP Twr/App Audio Archives
FacilityFrequency
Annecy Tower118.200
Chambery Approach121.200
Chambery Info123.700
Chambery Tower118.300
Emergency/Guard121.500
Lyon Approach136.075


NOTICE

Unauthorized use prohibited. See LiveATC.net Terms of Service


Find LiveATC Audio Streams


Airport/ARTCC Code

Frequency
(e.g., 124.400, 128.75)
Site-wide search

Browse LiveATC Feeds
LiveATC Coverage Map
Top 50 LiveATC Feeds
Bad Weather Areas

LiveATC FAQ
Offer a LiveATC Feed
Contact LiveATC.net
Press Inquiries

LiveATC on iPhone
LiveATC on Android

Windows Phone
Windows 8/10

LiveATC Mobile
(Mobile browser)

ATC Audio Archives
Interesting Recordings

LiveATC Forums


Home Page
About LiveATC.net
Make a Donation
LiveATC Store

Terms of Use
Privacy Policy

Canadian Air Freqs

AIRMETs/SIGMETs

FAA Airport Status
Nat'l Airspace Status
Arrival Demand Charts


Server Software By:
Icecast.org
Liquidsoap

Please make a donation to help us keep growing!